Location: Hyderabad
(17.3833°N, 78.4667°E)
Time: 03:05:23
(UTC+05:30)

H-2A R/B - Visible Passes

Search period start: 24 August 2017 00:00
Search period end: 03 September 2017 00:00
Orbit: 270 x 33067 km, 28.5° (Epoch: 22 August)

Date Brightness Start Highest point End Pass type
(mag) Time Alt. Az. Time Alt. Az. Time Alt. Az.
24 Aug 9.9 01:51:28 10° E 05:50:19 31° ENE 07:34:00 10° ENE visible
25 Aug 6.3 04:22:09 16° SW 06:43:44 87° SW 13:18:48 10° ESE visible
26 Aug 7.3 01:04:36 10° E 06:11:40 37° ENE 08:04:17 10° ENE visible
27 Aug 6.1 04:44:22 13° SW 06:44:23 80° WSW 13:41:54 10° ESE visible
28 Aug 7.1 00:05:14 12° SE 06:33:12 44° ENE 08:32:39 10° ENE visible
29 Aug 5.8 05:07:09 10° SW 07:00:02 72° W 14:04:45 10° ESE visible
30 Aug 7.0 00:27:24 18° SE 06:54:50 51° ENE 08:59:41 10° ENE visible
31 Aug 5.6 05:31:27 10° WSW 07:20:56 64° W 14:27:21 10° SE visible
01 Sep 6.9 00:49:32 25° SE 07:16:23 57° ENE 09:25:43 10° ENE visible
